Year,Month,Day,Hour,Minute,Value (Times are PST for temperature in C)
2016,10,15,13,42,9.90
2016,10,15,13,43,9.90
2016,10,15,13,44,9.90
2016,10,15,13,45,9.90
2016,10,15,13,46,9.90
2016,10,15,13,47,9.90
2016,10,15,13,48,9.90
2016,10,15,13,49,9.90
2016,10,15,13,50,9.90
2016,10,15,13,51,10.00
2016,10,15,13,52,10.00
2016,10,15,13,53,10.00
2016,10,15,13,54,10.00
2016,10,15,13,55,10.00
2016,10,15,13,56,10.10
2016,10,15,13,57,10.10
2016,10,15,13,58,10.10
2016,10,15,13,59,10.10
2016,10,15,14,00,10.10
2016,10,15,14,01,10.10
2016,10,15,14,02,10.20
2016,10,15,14,03,10.20
2016,10,15,14,04,10.20
2016,10,15,14,05,10.20
2016,10,15,14,06,10.20
2016,10,15,14,07,10.20
2016,10,15,14,08,10.30
2016,10,15,14,09,10.30
2016,10,15,14,10,10.30
2016,10,15,14,11,10.30
2016,10,15,14,12,10.30
2016,10,15,14,13,10.30
2016,10,15,14,14,10.30
2016,10,15,14,15,10.40
2016,10,15,14,16,10.40
2016,10,15,14,17,10.40
2016,10,15,14,18,10.40
2016,10,15,14,19,10.40
2016,10,15,14,20,10.40
2016,10,15,14,21,10.40
2016,10,15,14,22,10.40
2016,10,15,14,23,10.40
2016,10,15,14,24,10.40
2016,10,15,14,25,10.40
2016,10,15,14,26,10.40
2016,10,15,14,27,10.40
2016,10,15,14,28,10.40
2016,10,15,14,29,10.40
2016,10,15,14,30,10.40
2016,10,15,14,31,10.40
2016,10,15,14,32,10.40
2016,10,15,14,33,10.40
2016,10,15,14,34,10.40
2016,10,15,14,35,10.50
2016,10,15,14,36,10.40
2016,10,15,14,37,10.40
2016,10,15,14,38,10.40
2016,10,15,14,39,10.40
2016,10,15,14,40,10.40
2016,10,15,14,41,10.40
2016,10,15,14,42,10.50
2016,10,15,14,43,10.50
2016,10,15,14,44,10.50
2016,10,15,14,45,10.50
2016,10,15,14,46,10.50
2016,10,15,14,47,10.50
2016,10,15,14,48,10.60
2016,10,15,14,49,10.60
2016,10,15,14,50,10.60
2016,10,15,14,51,10.60
2016,10,15,14,52,10.60
2016,10,15,14,53,10.60
2016,10,15,14,54,10.60
2016,10,15,14,55,10.70
2016,10,15,14,56,10.70
2016,10,15,14,57,10.70
2016,10,15,14,58,10.70
2016,10,15,14,59,10.70
2016,10,15,15,00,10.80
2016,10,15,15,01,10.80
2016,10,15,15,02,10.80
2016,10,15,15,03,10.90
2016,10,15,15,04,10.90
2016,10,15,15,05,11.00
2016,10,15,15,06,11.10
2016,10,15,15,07,11.10
2016,10,15,15,08,11.10
2016,10,15,15,09,11.10
2016,10,15,15,10,11.10
2016,10,15,15,11,11.10
2016,10,15,15,12,11.10
2016,10,15,15,13,11.10
2016,10,15,15,14,11.10
2016,10,15,15,15,11.10
2016,10,15,15,16,11.10
2016,10,15,15,17,11.10
2016,10,15,15,18,11.10
2016,10,15,15,19,11.10
2016,10,15,15,20,11.10
2016,10,15,15,21,11.10
2016,10,15,15,22,11.00
2016,10,15,15,23,11.00
2016,10,15,15,24,11.00
2016,10,15,15,25,11.00
2016,10,15,15,26,11.00
2016,10,15,15,27,11.00
2016,10,15,15,28,11.00
2016,10,15,15,29,11.00
2016,10,15,15,30,11.00
2016,10,15,15,31,11.00
2016,10,15,15,32,11.00
2016,10,15,15,33,11.00
2016,10,15,15,34,11.00
2016,10,15,15,35,11.00
2016,10,15,15,36,11.00
